Home   Weather   Fairfield   Past weeks
Flag for Jamaica

Past Weather in Fairfield, Jamaica — Yesterday and Last 2 Weeks

Now
79 °F

Passing clouds.


Feels Like: 82 °F
Forecast: 86 / 72 °F
Wind: 8 mph from East

Location: Kingston / Norman Manley

Current Time: Dec 12, 2019 at 4:15:37 am

Latest Report: Dec 12, 2019 at 3:00 am


Visibility: N/A

Pressure: 29.95 "Hg

Humidity: 84%

Dew Point: 73 °F

Location of FairfieldLocation

Past Weather in Fairfield — Graph

°F

Fairfield Temperature Yesterday

Maximum temperature yesterday: 88 °F (at 11:00 am)
Minimum temperature yesterday: 79 °F (at 2:00 am)
Average temperature yesterday: 83 °F

High & Low Weather Summary for the Past Weeks

 TemperatureHumidityPressure
High95 °F (Nov 27, 1:00 pm)94% (Dec 7, 2:40 pm)30.07 "Hg (Dec 7, 2:40 pm)
Low75 °F (Dec 7, 2:40 pm)50% (Nov 27, 1:00 pm)29.83 "Hg (Nov 30, 2:00 pm)
Average83 °F77%29.94 "Hg
* Reported Nov 27 3:00 am — Dec 12 3:00 am, Fairfield. Weather by CustomWeather, © 2019

Note: Actual official high and low records may vary slightly from our data, if they occured in-between our weather recording intervals... More about our weather records

Fairfield Weather History for the Previous 24 Hours

Scroll right to see more
 ConditionsComfort  
Time TempWeatherWind HumidityBarometerVisibility
3:00 am
Thu, Dec 12
79 °FPassing clouds.8 mph84%29.95 "HgN/A
2:00 am81 °FPassing clouds.7 mph74%29.95 "HgN/A
1:00 am77 °FPassing clouds.8 mph83%29.98 "HgN/A
12:00 am81 °FPassing clouds.7 mph74%30.01 "HgN/A
11:00 pm
Wed, Dec 11
81 °FPassing clouds.10 mph79%30.01 "HgN/A
10:00 pm81 °FPassing clouds.5 mph84%30.01 "HgN/A
9:00 pm81 °FPassing clouds.3 mph79%30.01 "HgN/A
8:00 pm82 °FPassing clouds.5 mph79%30.01 "HgN/A
7:00 pm84 °FPassing clouds.8 mph74%29.98 "HgN/A
6:00 pm84 °FPassing clouds.13 mph79%29.95 "HgN/A
5:00 pm84 °FPassing clouds.20 mph79%29.95 "HgN/A
4:00 pm86 °FScattered clouds.17 mph75%29.95 "HgN/A
3:00 pm86 °FPassing clouds.21 mph79%29.95 "HgN/A
2:00 pm86 °FPassing clouds.20 mph79%29.95 "HgN/A
1:00 pm88 °FPassing clouds.15 mph66%29.98 "HgN/A
12:00 pm88 °FPassing clouds.16 mph66%30.01 "HgN/A
11:00 am88 °FPassing clouds.8 mph66%30.04 "HgN/A
10:00 am86 °FPassing clouds.6 mph70%30.04 "HgN/A
9:00 am86 °FPassing clouds.5 mph70%30.07 "HgN/A
8:00 am81 °FPassing clouds.5 mph79%30.04 "HgN/A
7:00 am79 °FPassing clouds.6 mph79%30.01 "HgN/A
6:00 am79 °FPassing clouds.7 mph79%29.98 "HgN/A
5:00 am79 °FPassing clouds.5 mph79%29.98 "HgN/A
4:00 am79 °FPassing clouds.6 mph79%29.95 "HgN/A
Weather by CustomWeather, © 2019

See weather overview

Advertising